TTL2485 SBDN-SBGR

Flight info

Callsign TTL2485
Flight time 0h 52m
Altitude 33000
Route TOPUX DCT ZARES
Aircraft R722/M-SDFGRWY/S

Departure

Time 2026-04-21 00:03
Airport Presidente Prudente Airport (SBDN)

Arrival

Time 2026-04-21 00:55
Airport São Paulo/Guarulhos–Governor André Franco Montoro International Airport (SBGR)
Time Latitude Longitude Altitude Speed Heading
2026-04-20 23:33 -22.17772 -51.41785 1480 ft 0 kts 189°
2026-04-20 23:52 -22.17759 -51.41782 1481 ft 5 kts 197°
2026-04-20 23:53 -22.17743 -51.41771 1476 ft 0 kts 234°
2026-04-20 23:53 -22.17751 -51.41782 1483 ft 1 kts 235°
2026-04-20 23:53 -22.17742 -51.41759 1476 ft 5 kts 257°
2026-04-20 23:53 -22.17741 -51.41751 1479 ft 0 kts 268°
2026-04-20 23:56 -22.17741 -51.41754 1478 ft 2 kts 270°
2026-04-20 23:56 -22.17739 -51.41792 1478 ft 10 kts 278°
2026-04-20 23:56 -22.17725 -51.41913 1481 ft 20 kts 271°
2026-04-20 23:56 -22.17712 -51.42069 1492 ft 21 kts 279°
2026-04-20 23:57 -22.17689 -51.42232 1489 ft 23 kts 278°
2026-04-20 23:57 -22.17664 -51.42415 1472 ft 27 kts 279°
2026-04-20 23:57 -22.17633 -51.42633 1471 ft 32 kts 278°
2026-04-20 23:57 -22.17598 -51.42883 1463 ft 36 kts 278°
2026-04-20 23:58 -22.17559 -51.43164 1448 ft 40 kts 279°
2026-04-20 23:58 -22.17529 -51.43365 1437 ft 16 kts 287°
2026-04-20 23:58 -22.17461 -51.43428 1432 ft 0 kts 338°
2026-04-20 23:59 -22.17458 -51.43430 1432 ft 1 kts 338°
2026-04-20 23:59 -22.17442 -51.43436 1432 ft 4 kts 338°
2026-04-21 00:00 -22.17400 -51.43455 1430 ft 5 kts 342°
2026-04-21 00:00 -22.17382 -51.43455 1429 ft 0 kts 24°
2026-04-21 00:00 -22.17376 -51.43449 1430 ft 2 kts 53°
2026-04-21 00:00 -22.17371 -51.43427 1431 ft 5 kts 86°
2026-04-21 00:01 -22.17372 -51.43411 1432 ft 0 kts 97°
2026-04-21 00:02 -22.17374 -51.43392 1434 ft 16 kts 97°
2026-04-21 00:02 -22.17434 -51.42956 1458 ft 102 kts 98°
2026-04-21 00:03 -22.17564 -51.41941 1558 ft 164 kts 98°
2026-04-21 00:03 -22.17768 -51.40639 2118 ft 185 kts 99°
2026-04-21 00:03 -22.17986 -51.39269 2996 ft 190 kts 97°
2026-04-21 00:03 -22.18208 -51.37803 3496 ft 205 kts 97°
2026-04-21 00:04 -22.18537 -51.36278 3994 ft 212 kts 103°
2026-04-21 00:04 -22.18975 -51.34760 4674 ft 209 kts 98°
2026-04-21 00:04 -22.18983 -51.33145 5057 ft 230 kts 81°
2026-04-21 00:04 -22.18999 -51.31379 5757 ft 243 kts 95°
2026-04-21 00:05 -22.19217 -51.29493 6253 ft 265 kts 96°
2026-04-21 00:05 -22.19400 -51.27453 6777 ft 275 kts 93°
2026-04-21 00:05 -22.19468 -51.26615 6987 ft 276 kts 95°
2026-04-21 00:05 -22.19596 -51.25153 7329 ft 276 kts 95°
2026-04-21 00:06 -22.19769 -51.23421 7763 ft 281 kts 96°
2026-04-21 00:06 -22.19941 -51.21756 8162 ft 280 kts 96°
2026-04-21 00:07 -22.20008 -51.21092 8314 ft 284 kts 96°
2026-04-21 00:07 -22.20213 -51.18976 8831 ft 283 kts 96°
2026-04-21 00:07 -22.20416 -51.16849 9339 ft 284 kts 96°
2026-04-21 00:07 -22.20624 -51.14713 9883 ft 289 kts 96°
2026-04-21 00:08 -22.20833 -51.12578 10352 ft 293 kts 96°
2026-04-21 00:08 -22.21050 -51.10334 10858 ft 309 kts 97°
2026-04-21 00:08 -22.21278 -51.07978 11385 ft 321 kts 96°
2026-04-21 00:08 -22.21511 -51.05539 11905 ft 333 kts 97°
2026-04-21 00:09 -22.21755 -51.03013 12445 ft 343 kts 97°
2026-04-21 00:09 -22.22007 -51.00425 12981 ft 348 kts 97°
2026-04-21 00:09 -22.22253 -50.97816 13514 ft 351 kts 97°
2026-04-21 00:09 -22.22505 -50.95179 14037 ft 355 kts 97°
2026-04-21 00:10 -22.22765 -50.92527 14515 ft 357 kts 97°
2026-04-21 00:10 -22.23020 -50.89850 14997 ft 362 kts 97°
2026-04-21 00:10 -22.23275 -50.87134 15491 ft 367 kts 97°
2026-04-21 00:10 -22.23535 -50.84401 15990 ft 368 kts 98°
2026-04-21 00:11 -22.23800 -50.81645 16497 ft 372 kts 97°
2026-04-21 00:11 -22.24067 -50.78843 17016 ft 378 kts 97°
2026-04-21 00:11 -22.24333 -50.76012 17545 ft 380 kts 97°
2026-04-21 00:11 -22.24603 -50.73157 18079 ft 385 kts 98°
2026-04-21 00:12 -22.24878 -50.70258 18590 ft 391 kts 97°
2026-04-21 00:12 -22.25151 -50.67334 19064 ft 394 kts 97°
2026-04-21 00:12 -22.25427 -50.64379 19546 ft 398 kts 98°
2026-04-21 00:12 -22.25712 -50.61397 20032 ft 401 kts 98°
2026-04-21 00:13 -22.25993 -50.58389 20529 ft 405 kts 98°
2026-04-21 00:13 -22.26273 -50.55353 21033 ft 409 kts 98°
2026-04-21 00:13 -22.26558 -50.52288 21546 ft 413 kts 98°
2026-04-21 00:13 -22.26751 -50.50238 21898 ft 415 kts 98°
2026-04-21 00:14 -22.27042 -50.47119 22420 ft 419 kts 98°
2026-04-21 00:14 -22.27434 -50.42902 23140 ft 424 kts 98°
2026-04-21 00:14 -22.27688 -50.40811 23507 ft 426 kts 101°
2026-04-21 00:14 -22.28289 -50.37672 23997 ft 428 kts 106°
2026-04-21 00:15 -22.29070 -50.34563 24461 ft 431 kts 108°
2026-04-21 00:15 -22.29789 -50.31395 24941 ft 437 kts 104°
2026-04-21 00:15 -22.30383 -50.28159 25415 ft 442 kts 104°
2026-04-21 00:15 -22.31008 -50.24901 25911 ft 445 kts 105°
2026-04-21 00:16 -22.31722 -50.21637 26408 ft 449 kts 107°
2026-04-21 00:16 -22.32437 -50.18339 26919 ft 453 kts 106°
2026-04-21 00:16 -22.33103 -50.14999 27429 ft 456 kts 105°
2026-04-21 00:16 -22.33770 -50.11636 27953 ft 459 kts 106°
2026-04-21 00:17 -22.34473 -50.08265 28484 ft 461 kts 107°
2026-04-21 00:17 -22.35184 -50.04876 29034 ft 464 kts 107°
2026-04-21 00:17 -22.35879 -50.01466 29581 ft 466 kts 107°
2026-04-21 00:17 -22.36568 -49.98043 30135 ft 467 kts 107°
2026-04-21 00:18 -22.37270 -49.94617 30624 ft 468 kts 107°
2026-04-21 00:18 -22.37980 -49.91179 31118 ft 469 kts 107°
2026-04-21 00:18 -22.38683 -49.87737 31597 ft 470 kts 107°
2026-04-21 00:18 -22.39377 -49.84293 32169 ft 468 kts 107°
2026-04-21 00:19 -22.40074 -49.80865 32775 ft 466 kts 107°
2026-04-21 00:19 -22.40778 -49.77432 32997 ft 474 kts 107°
2026-04-21 00:19 -22.41501 -49.73905 33017 ft 487 kts 107°
2026-04-21 00:19 -22.42221 -49.70335 33026 ft 499 kts 107°
2026-04-21 00:20 -22.42967 -49.66626 33027 ft 510 kts 107°
2026-04-21 00:20 -22.44488 -49.59106 33027 ft 512 kts 107°
2026-04-21 00:21 -22.46007 -49.51578 33023 ft 512 kts 107°
2026-04-21 00:21 -22.47520 -49.44058 33026 ft 512 kts 107°
2026-04-21 00:22 -22.49029 -49.36544 33031 ft 512 kts 107°
2026-04-21 00:22 -22.50533 -49.29022 33027 ft 511 kts 107°
2026-04-21 00:23 -22.52033 -49.21514 33022 ft 511 kts 106°
2026-04-21 00:23 -22.53530 -49.13998 33022 ft 511 kts 106°
2026-04-21 00:24 -22.55024 -49.06480 33027 ft 510 kts 106°
2026-04-21 00:24 -22.56509 -48.98981 33027 ft 510 kts 106°
2026-04-21 00:25 -22.57994 -48.91472 33028 ft 510 kts 106°
2026-04-21 00:25 -22.59475 -48.83964 33029 ft 510 kts 106°
2026-04-21 00:26 -22.60950 -48.76463 33034 ft 510 kts 106°
2026-04-21 00:26 -22.62421 -48.68954 33033 ft 510 kts 106°
2026-04-21 00:27 -22.63889 -48.61457 33039 ft 509 kts 105°
2026-04-21 00:27 -22.65351 -48.53962 33116 ft 510 kts 105°
2026-04-21 00:28 -22.66812 -48.46451 33120 ft 510 kts 105°
2026-04-21 00:28 -22.68267 -48.38956 33124 ft 508 kts 105°
2026-04-21 00:29 -22.69716 -48.31473 33131 ft 508 kts 105°
2026-04-21 00:29 -22.71159 -48.24001 33129 ft 507 kts 105°
2026-04-21 00:30 -22.72595 -48.16541 32684 ft 503 kts 104°
2026-04-21 00:30 -22.73304 -48.12851 32126 ft 497 kts 104°
2026-04-21 00:30 -22.74002 -48.09213 31694 ft 490 kts 104°
2026-04-21 00:30 -22.74693 -48.05614 31290 ft 486 kts 104°
2026-04-21 00:31 -22.75377 -48.02046 30713 ft 482 kts 103°
2026-04-21 00:31 -22.76048 -47.98527 30085 ft 472 kts 103°
2026-04-21 00:31 -22.76914 -47.95138 29350 ft 463 kts 113°
2026-04-21 00:31 -22.78222 -47.91975 28647 ft 456 kts 118°
2026-04-21 00:32 -22.79700 -47.88961 27961 ft 450 kts 122°
2026-04-21 00:32 -22.81235 -47.86033 27303 ft 444 kts 121°
2026-04-21 00:32 -22.82651 -47.83093 27132 ft 440 kts 119°
2026-04-21 00:32 -22.84027 -47.80103 27127 ft 444 kts 119°
2026-04-21 00:33 -22.85452 -47.77137 26706 ft 441 kts 121°
2026-04-21 00:33 -22.86899 -47.74221 26273 ft 437 kts 121°
2026-04-21 00:33 -22.88305 -47.71320 25849 ft 434 kts 120°
2026-04-21 00:33 -22.89678 -47.68418 25423 ft 431 kts 120°
2026-04-21 00:34 -22.91054 -47.65543 25013 ft 427 kts 121°
2026-04-21 00:34 -22.92433 -47.62702 24605 ft 424 kts 121°
2026-04-21 00:34 -22.93797 -47.59876 24203 ft 422 kts 121°
2026-04-21 00:34 -22.95143 -47.57060 23818 ft 419 kts 121°
2026-04-21 00:35 -22.96462 -47.54305 23366 ft 415 kts 121°
2026-04-21 00:35 -22.97790 -47.51541 23131 ft 410 kts 121°
2026-04-21 00:35 -22.99113 -47.48787 23138 ft 413 kts 121°
2026-04-21 00:35 -23.00441 -47.46018 23145 ft 414 kts 121°
2026-04-21 00:36 -23.01767 -47.43247 23148 ft 414 kts 121°
2026-04-21 00:36 -23.03096 -47.40471 23156 ft 414 kts 121°
2026-04-21 00:36 -23.04424 -47.37700 23156 ft 414 kts 120°
2026-04-21 00:36 -23.05752 -47.34923 23162 ft 414 kts 120°
2026-04-21 00:37 -23.07083 -47.32142 23090 ft 415 kts 121°
2026-04-21 00:37 -23.08409 -47.29367 22914 ft 413 kts 120°
2026-04-21 00:37 -23.09724 -47.26611 22588 ft 403 kts 120°
2026-04-21 00:37 -23.10945 -47.23925 22253 ft 395 kts 115°
2026-04-21 00:38 -23.11675 -47.21036 21920 ft 399 kts 102°
2026-04-21 00:38 -23.11811 -47.18014 21458 ft 403 kts 89°
2026-04-21 00:38 -23.11317 -47.15027 20934 ft 403 kts 76°
2026-04-21 00:38 -23.10220 -47.12222 20418 ft 404 kts 63°
2026-04-21 00:39 -23.08596 -47.09751 20195 ft 401 kts 53°
2026-04-21 00:39 -23.06743 -47.07460 20195 ft 406 kts 49°
2026-04-21 00:39 -23.04758 -47.05265 20047 ft 409 kts 47°
2026-04-21 00:39 -23.02803 -47.03047 19748 ft 404 kts 50°
2026-04-21 00:40 -23.00936 -47.00784 19444 ft 402 kts 51°
2026-04-21 00:40 -22.99068 -46.98537 19179 ft 399 kts 49°
2026-04-21 00:40 -22.97174 -46.96346 19165 ft 400 kts 49°
2026-04-21 00:40 -22.95267 -46.94132 18955 ft 400 kts 50°
2026-04-21 00:41 -22.93394 -46.91916 18611 ft 394 kts 50°
2026-04-21 00:41 -22.91577 -46.89772 18184 ft 381 kts 50°
2026-04-21 00:41 -22.89847 -46.87619 17721 ft 376 kts 58°
2026-04-21 00:41 -22.88854 -46.85067 17260 ft 365 kts 84°
2026-04-21 00:42 -22.88952 -46.82377 16651 ft 354 kts 109°
2026-04-21 00:42 -22.90083 -46.80091 15965 ft 342 kts 135°
2026-04-21 00:42 -22.91946 -46.78557 15320 ft 334 kts 152°
2026-04-21 00:42 -22.93965 -46.77421 14619 ft 320 kts 155°
2026-04-21 00:43 -22.95905 -46.76313 13873 ft 313 kts 152°
2026-04-21 00:43 -22.97709 -46.75013 13034 ft 310 kts 144°
2026-04-21 00:43 -22.99348 -46.73500 12236 ft 308 kts 140°
2026-04-21 00:43 -23.00952 -46.72012 11825 ft 302 kts 143°
2026-04-21 00:44 -23.02613 -46.70618 11316 ft 300 kts 144°
2026-04-21 00:44 -23.04274 -46.69240 10546 ft 299 kts 143°
2026-04-21 00:44 -23.05882 -46.67851 9767 ft 292 kts 142°
2026-04-21 00:45 -23.09012 -46.65150 8181 ft 283 kts 142°
2026-04-21 00:45 -23.10492 -46.63883 8124 ft 269 kts 142°
2026-04-21 00:45 -23.11959 -46.62621 8113 ft 271 kts 142°
2026-04-21 00:45 -23.13432 -46.61351 8125 ft 270 kts 142°
2026-04-21 00:46 -23.14913 -46.60077 8123 ft 273 kts 142°
2026-04-21 00:46 -23.16391 -46.58806 8126 ft 270 kts 142°
2026-04-21 00:46 -23.17874 -46.57543 8126 ft 271 kts 144°
2026-04-21 00:46 -23.19546 -46.56628 8132 ft 271 kts 164°
2026-04-21 00:47 -23.21412 -46.56379 8177 ft 271 kts 182°
2026-04-21 00:47 -23.23259 -46.56812 8162 ft 274 kts 201°
2026-04-21 00:47 -23.24945 -46.57761 8200 ft 274 kts 210°
2026-04-21 00:47 -23.26521 -46.58950 8053 ft 270 kts 214°
2026-04-21 00:48 -23.28018 -46.60096 7846 ft 260 kts 211°
2026-04-21 00:48 -23.29546 -46.61164 7635 ft 255 kts 210°
2026-04-21 00:48 -23.31037 -46.62201 7427 ft 258 kts 211°
2026-04-21 00:48 -23.32545 -46.63280 7193 ft 258 kts 211°
2026-04-21 00:49 -23.34052 -46.64351 6787 ft 259 kts 211°
2026-04-21 00:49 -23.35557 -46.65420 6309 ft 258 kts 211°
2026-04-21 00:49 -23.37037 -46.66476 6167 ft 252 kts 211°
2026-04-21 00:49 -23.38495 -46.67512 6177 ft 251 kts 211°
2026-04-21 00:50 -23.39966 -46.68550 6178 ft 251 kts 210°
2026-04-21 00:50 -23.41438 -46.69578 6178 ft 251 kts 207°
2026-04-21 00:50 -23.43080 -46.70146 6185 ft 248 kts 182°
2026-04-21 00:50 -23.44780 -46.69967 6191 ft 246 kts 161°
2026-04-21 00:51 -23.46283 -46.69091 6196 ft 246 kts 139°
2026-04-21 00:51 -23.47357 -46.67657 6192 ft 245 kts 117°
2026-04-21 00:51 -23.47848 -46.65889 6188 ft 248 kts 96°
2026-04-21 00:51 -23.47760 -46.64021 6121 ft 242 kts 81°
2026-04-21 00:52 -23.47255 -46.62331 5811 ft 227 kts 70°
2026-04-21 00:52 -23.46737 -46.60824 5268 ft 203 kts 76°
2026-04-21 00:52 -23.46399 -46.59353 4664 ft 199 kts 78°
2026-04-21 00:52 -23.46024 -46.57920 4097 ft 190 kts 73°
2026-04-21 00:53 -23.45722 -46.56590 3764 ft 177 kts 83°
2026-04-21 00:53 -23.45559 -46.55152 3596 ft 202 kts 84°
2026-04-21 00:53 -23.45272 -46.53777 3472 ft 170 kts 73°
2026-04-21 00:53 -23.44920 -46.52619 3193 ft 160 kts 72°
2026-04-21 00:54 -23.44631 -46.51484 3022 ft 153 kts 77°
2026-04-21 00:54 -23.44342 -46.50383 2799 ft 152 kts 75°
2026-04-21 00:54 -23.44046 -46.49282 2615 ft 149 kts 75°
2026-04-21 00:54 -23.43762 -46.48266 2475 ft 128 kts 76°
2026-04-21 00:55 -23.43564 -46.47521 2476 ft 78 kts 73°
2026-04-21 00:55 -23.43453 -46.47110 2475 ft 34 kts 73°
2026-04-21 00:55 -23.43343 -46.46906 2475 ft 30 kts 47°
2026-04-21 00:55 -23.43233 -46.46789 2475 ft 19 kts 42°
2026-04-21 00:56 -23.43125 -46.46709 2476 ft 19 kts 360°
2026-04-21 00:56 -23.43004 -46.46744 2476 ft 19 kts 344°
2026-04-21 00:56 -23.42895 -46.46778 2476 ft 5 kts 344°
2026-04-21 00:56 -23.42856 -46.46791 2475 ft 7 kts 344°
2026-04-21 00:57 -23.42799 -46.46811 2475 ft 10 kts 331°
2026-04-21 00:57 -23.42778 -46.46881 2475 ft 11 kts 257°
2026-04-21 00:57 -23.42802 -46.46975 2475 ft 14 kts 254°
2026-04-21 00:57 -23.42833 -46.47087 2475 ft 17 kts 253°
2026-04-21 00:58 -23.42857 -46.47176 2475 ft 19 kts 253°
2026-04-21 00:58 -23.42911 -46.47378 2475 ft 23 kts 253°
2026-04-21 00:58 -23.42959 -46.47551 2476 ft 25 kts 255°
2026-04-21 00:58 -23.43009 -46.47740 2476 ft 27 kts 253°
2026-04-21 00:59 -23.43046 -46.47877 2476 ft 28 kts 254°
2026-04-21 00:59 -23.43123 -46.48161 2477 ft 31 kts 253°
2026-04-21 00:59 -23.43165 -46.48316 2478 ft 32 kts 253°
2026-04-21 00:59 -23.43180 -46.48596 2478 ft 29 kts 276°
2026-04-21 01:00 -23.43168 -46.48739 2478 ft 19 kts 276°
2026-04-21 01:00 -23.43130 -46.48816 2478 ft 10 kts 284°
2026-04-21 01:00 -23.43124 -46.48871 2478 ft 0 kts 272°